Location: Most
(50.5133°N, 13.6207°E)
Time: 02:46:26
(UTC+01:00)

Oscar 11 - Pass Details

Date: 01 December 2021
Orbit: 611 x 625 km, 97.6° (Epoch: 17 January)

Event Time Altitude Azimuth Distance (km) Brightness Sun altitude
Rises 17:39:13 0° 204° (SSW) 2,895 11.1 -14.4°
Reaches altitude 10° 17:41:53 10° 221° (SW) 1,996 10.6 -14.8°
Maximum altitude 17:45:08 20° 269° (W) 1,442 9.9 -15.3°
Drops below altitude 10° 17:48:24 10° 318° (NW) 2,011 10.0 -15.8°
Sets 17:51:07 0° 335° (NNW) 2,924 10.7 -16.2°
